Volver al catálogo

COSMOS 2251 DEB

ActivoLEO
NORAD 34721·DEBRIS·🇷🇺 Russia

Lanzado Jun 16, 1993 desde Plesetsk Cosmodrome

Loading…

Próximos Pases (próximas 24 horas)

TLE

ActualizadoSource: Space-Track

Época: Sep 14, 2026, 13:31 UTC

1 34721U 93036YP  26257.56364791  .00001395  00000-0  82484-3 0  9998
2 34721  73.9213 207.3229 0213757  91.2538  26.8306 13.97811703890026

Sigue COSMOS 2251 DEB en tiempo real con AllMySat

Download on the App Store